• In Uzbekistan
  • List of Countries
  • For 7 days
  • Water Temperature
  • Satellite Maps
  • Weather Map
  • Weather Widgets
  • user-avatar
    Login

    Hourly Weather Teleshovschina

    Today, 22 April, Monday

    Time Temperature Precipitation Wind Pressure Humidity
    00:00 +8°C° 0 mm 2 mps 755 mmHg 72%
    01:00 +7°C° 0 mm 2 mps 755 mmHg 73%
    02:00 +6°C° 0 mm 2 mps 756 mmHg 76%
    03:00 +6°C° 0 mm 2 mps 756 mmHg 77%
    04:00 +6°C° 0 mm 2 mps 756 mmHg 77%
    05:00 +6°C° 0 mm 2 mps 756 mmHg 77%
    06:00 +8°C° 0 mm 2 mps 756 mmHg 71%
    07:00 +11°C° 0 mm 1 mps 757 mmHg 64%
    08:00 +13°C° 0 mm 1 mps 757 mmHg 57%
    09:00 +14°C° 0 mm 2 mps 757 mmHg 49%
    10:00 +15°C° 0 mm 2 mps 757 mmHg 41%
    11:00 +17°C° 0 mm 2 mps 758 mmHg 33%
    12:00 +17°C° 0 mm 2 mps 758 mmHg 33%
    13:00 +17°C° 0 mm 2 mps 757 mmHg 33%
    14:00 +17°C° 0 mm 2 mps 757 mmHg 33%
    15:00 +17°C° 0 mm 2 mps 757 mmHg 34%
    16:00 +17°C° 0 mm 2 mps 757 mmHg 35%
    17:00 +18°C° 0 mm 1 mps 757 mmHg 36%
    18:00 +15°C° 0 mm 1 mps 757 mmHg 40%
    19:00 +14°C° 0 mm 1 mps 757 mmHg 45%
    20:00 +11°C° 0 mm 0 mps 757 mmHg 50%
    21:00 +10°C° 0 mm 0 mps 758 mmHg 51%
    22:00 +10°C° 0 mm 0 mps 758 mmHg 53%
    23:00 +9°C° 0 mm 0 mps 758 mmHg 54%

    Tomorrow, 23 April, Tuesday

    Time Temperature Precipitation Wind Pressure Humidity
    00:00 +9°C° 0 mm 0 mps 758 mmHg 55%
    01:00 +8°C° 0 mm 0 mps 759 mmHg 56%
    02:00 +8°C° 0 mm 0 mps 759 mmHg 57%
    03:00 +8°C° 0 mm 0 mps 759 mmHg 58%
    04:00 +7°C° 0 mm 0 mps 759 mmHg 60%
    05:00 +7°C° 0 mm 0 mps 759 mmHg 61%
    06:00 +9°C° 0 mm 0 mps 759 mmHg 57%
    07:00 +12°C° 0 mm 1 mps 759 mmHg 53%
    08:00 +14°C° 0 mm 1 mps 760 mmHg 49%
    09:00 +15°C° 0 mm 1 mps 760 mmHg 45%
    10:00 +18°C° 0 mm 1 mps 760 mmHg 40%
    11:00 +19°C° 0 mm 1 mps 760 mmHg 35%
    12:00 +19°C° 0 mm 1 mps 759 mmHg 35%
    13:00 +20°C° 0 mm 1 mps 759 mmHg 34%
    14:00 +20°C° 0 mm 1 mps 759 mmHg 34%
    15:00 +20°C° 0 mm 1 mps 759 mmHg 35%
    16:00 +19°C° 0 mm 1 mps 758 mmHg 36%
    17:00 +19°C° 0 mm 1 mps 758 mmHg 37%
    18:00 +16°C° 0 mm 1 mps 758 mmHg 41%
    19:00 +14°C° 0 mm 1 mps 758 mmHg 45%
    20:00 +13°C° 0 mm 1 mps 758 mmHg 50%
    21:00 +12°C° 0 mm 1 mps 758 mmHg 51%
    22:00 +12°C° 0 mm 1 mps 758 mmHg 53%
    23:00 +11°C° 0 mm 1 mps 758 mmHg 55%

    Day after tomorrow, 24 April, Wednesday

    Time Temperature Precipitation Wind Pressure Humidity
    00:00 +11°C° 0 mm 1 mps 758 mmHg 56%
    01:00 +10°C° 0 mm 1 mps 758 mmHg 57%
    02:00 +9°C° 0 mm 0 mps 758 mmHg 58%
    03:00 +9°C° 0 mm 1 mps 759 mmHg 59%
    04:00 +9°C° 0 mm 1 mps 759 mmHg 61%
    05:00 +9°C° 0 mm 1 mps 759 mmHg 62%
    06:00 +11°C° 0 mm 1 mps 759 mmHg 58%
    07:00 +13°C° 0 mm 1 mps 759 mmHg 54%
    08:00 +15°C° 0 mm 1 mps 759 mmHg 50%
    09:00 +16°C° 0 mm 1 mps 759 mmHg 46%
    10:00 +18°C° 0 mm 1 mps 759 mmHg 42%
    11:00 +19°C° 0 mm 2 mps 759 mmHg 39%
    12:00 +19°C° 0 mm 2 mps 758 mmHg 38%
    13:00 +20°C° 0 mm 2 mps 758 mmHg 37%
    14:00 +20°C° 0 mm 3 mps 758 mmHg 36%
    15:00 +20°C° 0 mm 3 mps 757 mmHg 38%
    16:00 +20°C° 0 mm 3 mps 757 mmHg 40%
    17:00 +19°C° 0 mm 3 mps 757 mmHg 42%
    18:00 +18°C° 0 mm 2 mps 757 mmHg 47%
    19:00 +16°C° 0 mm 2 mps 757 mmHg 52%
    20:00 +14°C° 0 mm 2 mps 757 mmHg 56%
    21:00 +13°C° 0 mm 2 mps 757 mmHg 58%
    22:00 +13°C° 0 mm 2 mps 757 mmHg 59%
    23:00 +12°C° 0 mm 2 mps 757 mmHg 60%

    25 April, Thursday

    Time Temperature Precipitation Wind Pressure Humidity
    00:00 +12°C° 0 mm 2 mps 757 mmHg 61%
    01:00 +10°C° 0 mm 2 mps 757 mmHg 63%
    02:00 +10°C° 0 mm 2 mps 757 mmHg 65%
    03:00 +9°C° 0 mm 2 mps 757 mmHg 66%
    04:00 +9°C° 0 mm 2 mps 757 mmHg 67%
    05:00 +9°C° 0 mm 2 mps 757 mmHg 69%
    06:00 +10°C° 0 mm 2 mps 757 mmHg 65%
    07:00 +13°C° 0 mm 2 mps 757 mmHg 60%
    08:00 +15°C° 0 mm 2 mps 757 mmHg 56%
    09:00 +16°C° 0 mm 3 mps 757 mmHg 52%
    10:00 +18°C° 0 mm 4 mps 757 mmHg 47%
    11:00 +19°C° 0 mm 4 mps 757 mmHg 42%
    12:00 +19°C° 0 mm 4 mps 757 mmHg 41%
    13:00 +20°C° 0 mm 4 mps 756 mmHg 40%
    14:00 +20°C° 0 mm 4 mps 756 mmHg 39%
    15:00 +20°C° 0 mm 4 mps 756 mmHg 40%
    16:00 +20°C° 0 mm 3 mps 755 mmHg 42%
    17:00 +20°C° 0 mm 3 mps 755 mmHg 44%
    18:00 +18°C° 0 mm 3 mps 755 mmHg 49%
    19:00 +16°C° 0 mm 3 mps 755 mmHg 55%
    20:00 +13°C° 0 mm 3 mps 755 mmHg 60%
    21:00 +13°C° 0 mm 3 mps 755 mmHg 62%
    22:00 +12°C° 0 mm 3 mps 755 mmHg 63%
    23:00 +12°C° 0 mm 3 mps 755 mmHg 64%

    26 April, Friday

    Time Temperature Precipitation Wind Pressure Humidity
    00:00 +11°C° 0 mm 3 mps 754 mmHg 65%
    01:00 +11°C° 0 mm 3 mps 754 mmHg 67%
    02:00 +10°C° 0 mm 3 mps 754 mmHg 69%
    03:00 +10°C° 0 mm 3 mps 754 mmHg 70%
    04:00 +10°C° 0 mm 3 mps 754 mmHg 72%
    05:00 +9°C° 0 mm 3 mps 753 mmHg 73%
    06:00 +11°C° 0 mm 3 mps 753 mmHg 69%
    07:00 +13°C° 0 mm 4 mps 753 mmHg 64%
    08:00 +15°C° 0 mm 4 mps 753 mmHg 60%
    09:00 +16°C° 0 mm 5 mps 753 mmHg 55%
    10:00 +19°C° 0 mm 5 mps 752 mmHg 50%
    11:00 +20°C° 0 mm 6 mps 752 mmHg 45%
    12:00 +21°C° 0 mm 5 mps 752 mmHg 43%
    13:00 +21°C° 0 mm 5 mps 751 mmHg 41%
    14:00 +22°C° 0 mm 5 mps 751 mmHg 40%
    15:00 +22°C° 0 mm 5 mps 751 mmHg 41%
    16:00 +21°C° 0 mm 4 mps 750 mmHg 43%
    17:00 +21°C° 0 mm 3 mps 750 mmHg 45%
    18:00 +19°C° 0 mm 3 mps 750 mmHg 51%
    19:00 +17°C° 0 mm 3 mps 750 mmHg 57%
    20:00 +14°C° 0 mm 3 mps 749 mmHg 63%
    21:00 +14°C° 0 mm 3 mps 749 mmHg 63%
    22:00 +13°C° 0 mm 3 mps 749 mmHg 64%
    23:00 +12°C° 0 mm 3 mps 749 mmHg 64%

    27 April, Saturday

    Time Temperature Precipitation Wind Pressure Humidity
    00:00 +12°C° 0 mm 3 mps 749 mmHg 65%
    01:00 +12°C° 0 mm 3 mps 749 mmHg 65%
    02:00 +11°C° 0 mm 3 mps 749 mmHg 66%
    03:00 +11°C° 0 mm 3 mps 748 mmHg 67%
    04:00 +10°C° 0 mm 3 mps 748 mmHg 69%
    05:00 +10°C° 0 mm 3 mps 748 mmHg 71%
    06:00 +12°C° 0 mm 4 mps 748 mmHg 69%
    07:00 +13°C° 0 mm 4 mps 748 mmHg 66%
    08:00 +15°C° 0 mm 4 mps 748 mmHg 64%
    09:00 +16°C° 0 mm 5 mps 748 mmHg 60%
    10:00 +19°C° 0 mm 5 mps 747 mmHg 56%
    11:00 +21°C° 0 mm 5 mps 747 mmHg 52%
    12:00 +21°C° 0 mm 6 mps 747 mmHg 52%
    13:00 +21°C° 0 mm 6 mps 747 mmHg 52%
    14:00 +21°C° 0 mm 6 mps 747 mmHg 51%
    15:00 +20°C° 0.2 mm 5 mps 747 mmHg 58%
    16:00 +19°C° 0.2 mm 4 mps 746 mmHg 64%
    17:00 +18°C° 0.2 mm 3 mps 746 mmHg 70%
    18:00 +17°C° 0.1 mm 3 mps 746 mmHg 72%
    19:00 +17°C° 0.1 mm 3 mps 746 mmHg 73%
    20:00 +16°C° 0.1 mm 2 mps 746 mmHg 75%
    21:00 +16°C° 0.5 mm 3 mps 746 mmHg 81%
    22:00 +14°C° 0.5 mm 3 mps 746 mmHg 87%
    23:00 +14°C° 0.5 mm 3 mps 746 mmHg 93%
    Show more